Orbital Elements at Epoch 2459200.5 (2020-Dec-17.0) TDB
Reference: JPL 6 (heliocentric ecliptic J2000)
Element | Value | Uncertainty (1-sigma) | Units |
e | .4028804365068215 | 0.00025672 | |
a | .9812422056780485 | 0.00013068 | au |
q | .58591891753556 | 0.00017388 | au |
i | 22.40197335510659 | 0.026032 | deg |
node | 141.8159624576068 | 0.0013086 | deg |
peri | 213.4875019055368 | 0.0058149 | deg |
M | 96.06844278497431 | 0.32402 | deg |
tp | 2459105.758336213445 (2020-Sep-13.25833621) | 0.30062 | TDB |
period | 355.0281234338294 0.97 | 0.070922 0.0001942 | d yr |
n | 1.014004176677844 | 0.00020256 | deg/d |
Q | 1.376565493820537 | 0.00018333 | au |
|
| | Orbit Determination Parameters
Additional Information
|